Regional Weather Roundup
Issued by NWS Portland, ME

Current Version | Previous Version | Text Only | Print | Product List | Glossary Off
Versions: 1 2 3 4 5 6 7 8 9 10 11 12 13 14 15 16 17 18 19 20 21 22 23 24 25 26 27 28 29 30 31 32 33 34 35 36 37 38 39 40 41 42 43 44 45 46 47 48 49 50
000 ASUS41 KGYX 241310 RWRGYX WEATHER ROUNDUP FOR MAINE AND NEW HAMPSHIRE NATIONAL WEATHER SERVICE GRAY ME 800 AM EST SAT FEB 24 2018 MEZ002-005-006-010-012-015-018-020-021-024-026-027-029-241400- MAINE CITY SKY/WX TMP DP RH WIND PRES REMARKS PORTLAND FAIR 35 34 96 NW3 30.02R SANFORD FAIR 43 38 82 W12 30.03R BAR HARBOR CLOUDY 36 35 96 W6 29.98R WISCASSET FAIR 32 32 100 CALM 30.02R ROCKLAND FAIR 34 34 100 W8 29.99R FRYEBURG FAIR 44 32 62 NW12G29 30.00R LEWISTONAUBURN FAIR 32 31 96 VRB3 30.01R AUGUSTA FAIR 40 32 73 NW8 29.99R WATERVILLE PTSUNNY 37 35 92 CALM 29.94R BANGOR PTSUNNY 35 34 96 W5 29.97R GREENVILLE N/A 34 28 79 NW6G23 29.88R MILLINOCKET CLOUDY 38 29 70 NW15G23 29.92R HOULTON CLOUDY 37 31 78 W9 29.85R PRESQUE ISLE CLOUDY 34 28 79 W9 29.85R FRENCHVILLE CLOUDY 29 24 82 N16G30 29.81R WCI 17 CARIBOU CLOUDY 34 26 72 W5 29.82R $$ NHZ002-005-008-009-011-012-014-241400- NEW HAMPSHIRE CITY SKY/WX TMP DP RH WIND PRES REMARKS PORTSMOUTH MOSUNNY 41 38 89 W7 30.04R ROCHESTER FAIR 43 38 82 VRB6 30.03R NASHUA FAIR 39 39 100 CALM 30.08R MANCHESTER FAIR 43 37 79 W8 30.06R CONCORD FAIR 44 37 76 W13 30.06R LACONIA CLOUDY 41 36 82 SW8 30.05R PLYMOUTH FAIR 40 34 80 W8 30.04R BERLIN CLOUDY 37 33 85 VRB3 30.01R WHITEFIELD CLOUDY 36 33 89 SW3 30.06R JAFFREY CLOUDY 40 37 89 W3 30.07S KEENE FOG 34 34 100 CALM 30.10S VSB 3/4 LEBANON CLOUDY 38 35 89 CALM 30.08R MT WASHINGTON FOG 16 16 100 W82G92 N/A VSB 0 WCI -13 $$ VTZ005-007-008-241400- VERMONT CITY SKY/WX TMP DP RH WIND PRES REMARKS ST JOHNSBURY N/A 38 32 79 MISG 30.06R MONTPELIER CLOUDY 37 33 85 NW7 30.11R BURLINGTON CLOUDY 41 32 70 W7 30.11R $$ MAZ007-012-024-CTZ003-RIZ002-NYZ038-NYZ072-241400- SOUTHERN NEW ENGLAND AND NY CITY SKY/WX TMP DP RH WIND PRES REMARKS BOSTON PTSUNNY 46 40 79 W9 30.09R WORCESTER FAIR 41 37 86 W14G20 30.08R NANTUCKET FOG 39 39 100 W17 30.12R VSB 1/4 PROVIDENCE FAIR 47 41 80 W9 30.13R HARTFORD FAIR 45 39 79 VRB3 30.14R ALBANY PTSUNNY 42 36 79 W3 30.18R NEW YORK CITY PTSUNNY 47 41 80 NW8 30.17F $$ ANZ081-ANZ082-ANZ150-NHZ014-MEZ023>029-241400- COASTAL MARINE OBSERVATIONS STATION/POSITION TIME TEMP WIND PRES WAVE AIR SEA DIR/SP/G HT/PER (UTC) (F) (DEG/KT/KT) (MB) (FT/S) MOUNT DESERT ROC 1200 40 250/ 17/ 18 1013.9R MATINICUS ROCK 1200 39 260/ 16/ 18 1014.1R ISLE OF SHOALS 1200 40 240/ 18/ 19 1016.5R JEFFREYS LEDGE 1206 41 N/A 4/ 4 GEORGES BANK BUO 1150 45 54 1017.5 5/ 8 $$ .............KEY.............. WCI - WIND CHILL TC - TEMPERATURE IN CELSIUS VSB - VISIBILITY IN MILES HX - HEAT INDEX FAIR- INDICATES FEW OR NO CLOUDS BELOW 12,000 FT, WITH NO SIGNIFICANT WEATHER AND/OR OBSTRUCTIONS TO VISIBILITY.

USA.gov is the U.S. government's official web portal to all federal, state and local government web resources and services.